Location: Unspecified
(41.5000°N, 0.0000°E)
Time: 17:57:11
(UTC+00:00)

Vanguard 1 - Pass Details

Date: 23 June 2019
Orbit: 655 x 3829 km, 34.2° (Epoch: 22 August)

Event Time Altitude Azimuth Distance (km) Brightness Sun altitude
Exits shadow 23:38:15 26° 149° (SSE) 5,134 13.1 -24.8°
Maximum altitude 23:39:31 26° 144° (SE) 5,053 13.1 -24.9°
Drops below altitude 10° 23:52:12 10° 96° (E) 5,327 13.7 -25.0°
Sets 23:56:31 0° 84° (E) 5,892 14.1 -25.1°
